CZ-6A DEB, 54492

Orbit data source: Space-Track

CZ-6A DEB, 54492 is space debris in SSO originally from a launch on Fri, 11 Nov 2022 UTC launched from the Taiyaun Space Center, China (TSC). Debris objects in space refer to the collection of defunct objects orbiting the Earth. Examples of debris include non-operational satellites, rocket bodies, and fragments generated from explosions, collisions, or faulty payload assembly.

Loading next visibility...
Identifier
54492, 2022-151HU
Orbit
SSO
Country
Flag of CNCN / PRC
Related business
Manufacturer
SAST
Mission
Spacecraft
Bus & Motor
Unknown
Mass
Unknown
Launch date (UTC)
2022-11-11 (4 years ago)
Launch vehicle
Unknown
Launch site
Taiyaun Space Center, China (TSC)
Object type
Payload
Rocket body
Debris
Shape & HBR
Unknown shape, 0.1 m
Radar Cross Section
Medium (>0.1 m² and <1 m²)

Expand to show TLE details & history
Last TLE update: 2 days ago

TLE from 2 days ago
0 CZ-6A DEB
1 54492U 22151HU  26171.33917249 -.00000017  00000-0  17495-4 0  9999
2 54492  98.9620 147.3037 0123866  79.8714 281.6393 13.93378952182718
Epoch: 2026-06-20T08:08Z
TLE epoch observation values (Epoch: 2026-06-20T08:08:24.503Z)
Latitude
-0.00001°
Longitude
116.64639°
Altitude
902.528 km
Speed
7.409 km/s
True Right ascension
09h 49m 12s
True Declination
0° 00' 00"
Sunlit
Object was in daylight at epoch
Visualization orbit readout
Latitude
Unknown
Longitude
Unknown
Altitude
Unknown
Speed
Unknown
Apparent Right ascension
Unknown
Apparent Declination
Unknown
Sunlit
N/A
Visualization observer readout
Local Sidereal Time
21:55:09
Azimuth
Unknown
Elevation
Unknown
Doppler factor
Unknown
Orbital elements
Apogee altitude
1,004.344 km
Perigee altitude
823.694 km
Semi-major axis
7,292.156 km
Eccentricity
0.01239
Inclination
98.962°
RAAN
147.3037°
Arg. of periapsis
79.8714°
True anomaly
280.24487°
Mean anomaly
281.6393°
Eccentric anomaly
280.9425°
Mean motion
3.48545 °/min
Orbital period
103.29 mins
BSTAR
0.000017495
Loading maneuver chart data...
Computing Atmospheric mass density...
Loading historical data...
Loading historical data...
Loading historical data...
Loading historical data...
Loading historical data...
Loading historical data...
Loading historical data...

Documentation

Showing up to 5 results
|